Date String (YYYY-MM-DD hh:mm:ss) UTC,Instrument flags,Ambient pressure (hPa),Sample flow (lpm),Bypass flow (lpm),Sample temperature (°C),Ambient temperature (°C),ASC tube jacket temperature (°C),LED temperature (°C),Box temperature (°C),Sample RH (%),Span deviation,Mass concentration (μg/m³),Mass concentration (μg/m³),Mass concentration (μg/m³)
DateTimeUTC,F1_M11,P_M11,Q1_M11,Q2_M11,T1_M11,T2_M11,T3_M11,T4_M11,T5_M11,U1_M11,ZSPAN_M11,X0_M11,X2_M11,X1_M11
2021-12-05 09:00:00,,0819.8,5.00,0.00,25.8,24.8,00.0,34.9,27.6,08.7,0000.0,0005.30,0001.50,0000.83
2021-12-05 09:01:00,,0819.9,5.01,0.00,25.8,24.8,00.0,34.9,27.6,08.7,0000.0,0005.46,0001.57,0000.85
2021-12-05 09:02:00,,0819.6,5.02,0.00,25.8,24.8,00.0,34.9,27.6,08.7,0000.0,0005.62,0001.62,0000.87
2021-12-05 09:03:00,,0819.6,4.99,0.00,25.8,24.8,00.0,34.9,27.6,08.8,0000.0,0005.70,0001.64,0000.87
2021-12-05 09:04:00,,0819.8,5.00,0.00,25.8,24.8,00.0,34.8,27.6,08.8,0000.0,0005.67,0001.63,0000.88
2021-12-05 09:05:00,,0820.0,5.00,0.00,25.8,24.8,00.0,34.8,27.6,08.8,0000.0,0005.52,0001.64,0000.88
2021-12-05 09:06:00,,0820.1,5.00,0.00,25.8,24.8,00.0,34.8,27.5,08.5,0000.0,0004.43,0001.55,0000.86
2021-12-05 09:07:00,,0820.1,4.99,0.00,25.8,24.8,00.0,34.8,27.5,08.3,0000.0,0003.82,0001.46,0000.86
2021-12-05 09:08:00,,0820.0,5.01,0.00,25.7,24.8,00.0,34.8,27.5,08.4,0000.0,0003.75,0001.42,0000.85
2021-12-05 09:09:00,,0819.9,4.99,0.00,25.7,24.8,00.0,34.8,27.5,08.4,0000.0,0003.47,0001.41,0000.84
2021-12-05 09:10:00,,0819.9,4.99,0.00,25.7,24.8,00.0,34.8,27.4,08.4,0000.0,0003.01,0001.37,0000.84
2021-12-05 09:11:00,,0819.9,4.99,0.00,25.7,24.8,00.0,34.8,27.4,08.5,0000.0,0003.19,0001.35,0000.85
2021-12-05 09:12:00,,0819.9,5.00,0.00,25.7,24.8,00.0,34.8,27.5,08.4,0000.0,0003.29,0001.32,0000.84
2021-12-05 09:13:00,,0819.9,5.01,0.00,25.7,24.8,00.0,34.8,27.5,08.3,0000.0,0003.29,0001.29,0000.83
2021-12-05 09:14:00,,0819.9,5.01,0.00,25.7,24.8,00.0,34.8,27.4,08.4,0000.0,0003.31,0001.26,0000.81
2021-12-05 09:15:00,,0819.9,5.01,0.00,25.7,24.8,00.0,34.8,27.5,08.5,0000.0,0003.58,0001.30,0000.81
2021-12-05 09:16:00,,0820.0,4.99,0.00,25.7,24.8,00.0,34.8,27.5,08.4,0000.0,0003.83,0001.26,0000.81
2021-12-05 09:17:00,,0819.9,5.00,0.00,25.7,24.8,00.0,34.8,27.5,08.4,0000.0,0003.47,0001.19,0000.81
2021-12-05 09:18:00,,0819.9,5.00,0.00,25.7,24.8,00.0,34.8,27.4,08.4,0000.0,0003.60,0001.20,0000.82
2021-12-05 09:19:00,,0820.0,4.99,0.00,25.7,24.8,00.0,34.8,27.4,07.5,0000.0,0003.66,0001.18,0000.82
2021-12-05 09:20:00,,0819.9,5.02,0.00,25.7,24.8,00.0,34.8,27.4,07.6,0000.0,0003.75,0001.18,0000.81
2021-12-05 09:21:00,,0820.0,5.01,0.00,25.7,24.8,00.0,34.7,27.4,07.8,0000.0,0003.72,0001.17,0000.80
2021-12-05 09:22:00,,0819.9,5.00,0.00,25.7,24.8,00.0,34.7,27.4,07.7,0000.0,0003.58,0001.15,0000.79
2021-12-05 09:23:00,,0819.9,5.00,0.00,25.7,24.8,00.0,34.7,27.4,07.8,0000.0,0003.35,0001.19,0000.79
2021-12-05 09:24:00,,0819.7,5.01,0.00,25.7,24.8,00.0,34.7,27.4,07.9,0000.0,0003.36,0001.23,0000.79
2021-12-05 09:25:00,,0819.8,5.00,0.00,25.7,24.8,00.0,34.7,27.4,08.0,0000.0,0003.35,0001.25,0000.80
2021-12-05 09:26:00,,0819.7,5.00,0.00,25.6,24.8,00.0,34.7,27.4,08.1,0000.0,0003.31,0001.24,0000.80
2021-12-05 09:27:00,,0819.6,5.01,0.00,25.6,24.7,00.0,34.7,27.4,08.1,0000.0,0002.70,0001.26,0000.80
2021-12-05 09:28:00,,0819.5,5.02,0.00,25.6,24.7,00.0,34.7,27.4,08.2,0000.0,0002.74,0001.28,0000.81
2021-12-05 09:29:00,,0819.7,5.00,0.00,25.6,24.7,00.0,34.7,27.4,08.2,0000.0,0002.74,0001.28,0000.80
2021-12-05 09:30:00,,0819.6,5.01,0.00,25.6,24.7,00.0,34.7,27.4,08.3,0000.0,0002.57,0001.27,0000.81
2021-12-05 09:31:00,,0819.6,5.00,0.00,25.6,24.7,00.0,34.7,27.4,08.3,0000.0,0002.31,0001.25,0000.82
2021-12-05 09:32:00,,0819.7,4.99,0.00,25.6,24.7,00.0,34.7,27.4,08.3,0000.0,0002.52,0001.25,0000.82
2021-12-05 09:33:00,,0819.9,5.00,0.00,25.6,24.7,00.0,34.7,27.3,08.2,0000.0,0003.53,0001.27,0000.83
2021-12-05 09:34:00,,0819.9,4.99,0.00,25.6,24.7,00.0,34.7,27.3,08.1,0000.0,0003.45,0001.23,0000.84
2021-12-05 09:35:00,,0819.8,5.02,0.00,25.6,24.8,00.0,34.7,27.3,08.0,0000.0,0003.46,0001.20,0000.84
2021-12-05 09:36:00,,0819.8,4.99,0.00,25.6,24.8,00.0,34.7,27.4,08.1,0000.0,0003.50,0001.19,0000.84
2021-12-05 09:37:00,,0819.8,4.98,0.00,25.6,24.8,00.0,34.7,27.4,08.1,0000.0,0003.53,0001.20,0000.84
2021-12-05 09:38:00,,0819.9,5.01,0.00,25.6,24.8,00.0,34.7,27.3,08.2,0000.0,0003.50,0001.16,0000.85
2021-12-05 09:39:00,,0819.9,5.00,0.00,25.6,24.7,00.0,34.7,27.3,08.3,0000.0,0003.52,0001.17,0000.86
2021-12-05 09:40:00,,0819.8,5.00,0.00,25.6,24.7,00.0,34.6,27.3,08.3,0000.0,0003.40,0001.16,0000.86
2021-12-05 09:41:00,,0819.8,4.99,0.00,25.6,24.7,00.0,34.6,27.3,08.1,0000.0,0003.98,0001.20,0000.87
2021-12-05 09:42:00,,0819.9,5.00,0.00,25.6,24.7,00.0,34.6,27.3,08.2,0000.0,0004.08,0001.19,0000.87
2021-12-05 09:43:00,,0819.8,5.01,0.00,25.6,24.6,00.0,34.6,27.3,08.2,0000.0,0004.11,0001.22,0000.87
2021-12-05 09:44:00,,0819.9,5.00,0.00,25.6,24.7,00.0,34.6,27.3,08.3,0000.0,0003.04,0001.20,0000.88
2021-12-05 09:45:00,,0819.8,4.99,0.00,25.6,24.7,00.0,34.7,27.3,08.3,0000.0,0003.04,0001.21,0000.88
2021-12-05 09:46:00,,0819.7,5.00,0.00,25.7,24.7,00.0,34.7,27.3,08.2,0000.0,0002.95,0001.22,0000.89
2021-12-05 09:47:00,,0819.6,5.00,0.00,25.7,24.7,00.0,34.7,27.4,07.8,0000.0,0002.85,0001.23,0000.89
2021-12-05 09:48:00,,0819.7,5.00,0.00,25.7,24.7,00.0,34.7,27.4,07.7,0000.0,0002.73,0001.21,0000.89
2021-12-05 09:49:00,,0819.7,5.01,0.00,25.7,24.7,00.0,34.7,27.4,07.7,0000.0,0002.69,0001.22,0000.89
2021-12-05 09:50:00,,0819.7,5.00,0.00,25.7,24.7,00.0,34.7,27.4,07.4,0000.0,0002.61,0001.20,0000.87
2021-12-05 09:51:00,,0819.6,5.01,0.00,25.7,24.7,00.0,34.7,27.4,07.3,0000.0,0002.58,0001.18,0000.86
2021-12-05 09:52:00,,0819.5,5.01,0.00,25.7,24.7,00.0,34.7,27.4,07.4,0000.0,0002.19,0001.15,0000.84
2021-12-05 09:53:00,,0819.5,5.01,0.00,25.7,24.8,00.0,34.7,27.4,07.5,0000.0,0001.99,0001.13,0000.83
2021-12-05 09:54:00,,0819.5,5.00,0.00,25.7,24.8,00.0,34.7,27.4,07.5,0000.0,0001.76,0001.09,0000.82
2021-12-05 09:55:00,,0819.5,4.99,0.00,25.7,24.8,00.0,34.7,27.4,07.6,0000.0,0001.81,0001.11,0000.80
2021-12-05 09:56:00,,0819.5,5.01,0.00,25.7,24.8,00.0,34.7,27.4,07.8,0000.0,0001.77,0001.09,0000.79
2021-12-05 09:57:00,,0819.4,4.99,0.00,25.7,24.8,00.0,34.7,27.4,08.1,0000.0,0001.70,0001.05,0000.77
2021-12-05 09:58:00,,0819.3,5.00,0.00,25.6,24.8,00.0,34.7,27.4,07.9,0000.0,0001.56,0001.00,0000.76
2021-12-05 09:59:00,,0819.2,5.00,0.00,25.6,24.8,00.0,34.7,27.3,07.9,0000.0,0001.53,0000.98,0000.75
